FW4301 Weather Reports


Display with metric or nautical units.
time (UTC)temp
F
wind
direction
speed
MPH
gust
MPH
rain 1hr
in
rain 24hr
in
rain mn
in
humidity
%
barometer
mb
20260904213529 106 0 0.0 0.0 0.00 0.00 0.00 23 1011.5
20260904213058 105 0 0.0 0.0 0.00 0.00 0.00 24 1011.6
20260904212531 105 0 0.0 0.0 0.00 0.00 0.00 26 1011.6
20260904212029 105 0 0.0 2.0 0.00 0.00 0.00 28 1011.8
20260904211559 104 0 0.0 2.0 0.00 0.00 0.00 27 1011.9
20260904211030 103 0 0.0 3.0 0.00 0.00 0.00 26 1011.9
20260904210530 103 0 0.0 3.0 0.00 0.00 0.00 27 1012.0
20260904210100 104 0 0.0 3.0 0.00 0.00 0.00 25 1012.0
20260904205534 104 0 0.0 3.0 0.00 0.00 0.00 25 1012.1
20260904205029 105 0 0.0 2.0 0.00 0.00 0.00 25 1012.2
20260904204556 105 16 0.0 1.0 0.00 0.00 0.00 27 1012.3
20260904204031 104 0 0.0 1.0 0.00 0.00 0.00 27 1012.3
20260904203530 104 0 0.0 0.0 0.00 0.00 0.00 25 1012.4
20260904203054 104 0 0.0 2.0 0.00 0.00 0.00 26 1012.5
20260904202530 104 0 0.0 2.0 0.00 0.00 0.00 26 1012.5
20260904202032 104 0 0.0 2.0 0.00 0.00 0.00 26 1012.6
20260904201551 104 0 0.0 1.0 0.00 0.00 0.00 25 1012.5
20260904201030 103 0 0.0 2.0 0.00 0.00 0.00 25 1012.6
20260904200530 103 0 0.0 2.0 0.00 0.00 0.00 27 1012.6
20260904200059 103 0 0.0 2.0 0.00 0.00 0.00 25 1012.8
20260904195531 103 0 0.0 2.0 0.00 0.00 0.00 23 1012.9
20260904195029 104 0 0.0 2.0 0.00 0.00 0.00 25 1013.0
20260904194627 104 0 0.0 1.0 0.00 0.00 0.00 24 1013.0
20260904194029 104 0 0.0 2.0 0.00 0.00 0.00 26 1013.1
20260904193530 103 0 0.0 2.0 0.00 0.00 0.00 25 1013.2
20260904193053 104 0 0.0 2.0 0.00 0.00 0.00 26 1013.3
20260904192529 102 0 0.0 1.0 0.00 0.00 0.00 30 1013.3
20260904192029 101 0 0.0 1.0 0.00 0.00 0.00 31 1013.3
20260904191550 100 0 0.0 3.0 0.00 0.00 0.00 31 1013.2
20260904191030 101 0 0.0 3.0 0.00 0.00 0.00 29 1013.3
20260904190530 100 0 0.0 0.0 0.00 0.00 0.00 29 1013.4
20260904190055 100 0 0.0 2.0 0.00 0.00 0.00 30 1013.5
20260904185529 99 0 0.0 3.0 0.00 0.00 0.00 33 1013.5
20260904185029 98 16 0.0 3.0 0.00 0.00 0.00 32 1013.5
20260904184556 98 0 0.0 3.0 0.00 0.00 0.00 34 1013.6
20260904184029 98 0 0.0 2.0 0.00 0.00 0.00 32 1013.8
20260904183529 97 0 0.0 1.0 0.00 0.00 0.00 34 1013.8
20260904183111 97 0 0.0 1.0 0.00 0.00 0.00 34 1013.9
20260904182530 97 0 0.0 2.0 0.00 0.00 0.00 34 1014.1
20260904182031 97 0 0.0 2.0 0.00 0.00 0.00 33 1014.1
20260904181608 98 0 0.0 2.0 0.00 0.00 0.00 33 1014.2
20260904181032 98 0 0.0 2.0 0.00 0.00 0.00 33 1014.1
20260904180530 97 0 0.0 1.0 0.00 0.00 0.00 36 1014.2
20260904180047 97 16 0.0 2.0 0.00 0.00 0.00 36 1014.3
20260904175529 97 0 0.0 2.0 0.00 0.00 0.00 36 1014.4
20260904175029 97 0 0.0 1.0 0.00 0.00 0.00 36 1014.4
20260904174601 97 0 0.0 1.0 0.00 0.00 0.00 37 1014.5
20260904174030 96 0 0.0 1.0 0.00 0.00 0.00 42 1014.5
20260904173529 96 0 0.0 1.0 0.00 0.00 0.00 38 1014.6
20260904173052 96 0 0.0 1.0 0.00 0.00 0.00 37 1014.6
20260904172529 96 0 0.0 1.0 0.00 0.00 0.00 38 1014.7
20260904172032 96 0 0.0 1.0 0.00 0.00 0.00 41 1014.7
20260904171553 95 0 0.0 0.0 0.00 0.00 0.00 40 1014.8
20260904171031 95 0 0.0 1.0 0.00 0.00 0.00 42 1014.8
20260904170529 94 0 0.0 1.0 0.00 0.00 0.00 45 1014.8
20260904170046 93 0 0.0 1.0 0.00 0.00 0.00 41 1014.9
20260904165529 93 0 0.0 1.0 0.00 0.00 0.00 42 1014.9
20260904165029 93 0 0.0 2.0 0.00 0.00 0.00 45 1014.9
20260904164556 92 0 0.0 2.0 0.00 0.00 0.00 45 1015.0
20260904164030 92 0 0.0 2.0 0.00 0.00 0.00 45 1015.0
20260904163531 92 0 0.0 1.0 0.00 0.00 0.00 44 1015.0
20260904163052 91 0 0.0 1.0 0.00 0.00 0.00 45 1015.0
20260904162530 91 0 0.0 1.0 0.00 0.00 0.00 45 1015.0
20260904162030 91 0 0.0 1.0 0.00 0.00 0.00 48 1015.0
20260904161551 90 0 0.0 0.0 0.00 0.00 0.00 49 1015.1
20260904161029 90 0 0.0 2.0 0.00 0.00 0.00 49 1015.0
20260904160530 89 0 0.0 2.0 0.00 0.00 0.00 51 1014.9
20260904160047 88 0 0.0 1.0 0.00 0.00 0.00 51 1014.9
20260904155530 88 0 0.0 1.0 0.00 0.00 0.00 53 1014.9
20260904155029 87 0 0.0 2.0 0.00 0.00 0.00 53 1014.9
20260904154557 87 0 0.0 2.0 0.00 0.00 0.00 53 1014.9
20260904154032 87 0 0.0 3.0 0.00 0.00 0.00 54 1014.9
20260904153529 87 0 0.0 3.0 0.00 0.00 0.00 54 1014.9
20260904153051 87 0 0.0 1.0 0.00 0.00 0.00 54 1014.9
20260904152530 87 0 0.0 2.0 0.00 0.00 0.00 54 1014.9
20260904152030 86 0 0.0 2.0 0.00 0.00 0.00 55 1014.9
20260904151604 86 0 0.0 1.0 0.00 0.00 0.00 57 1014.7
20260904151033 85 0 0.0 1.0 0.00 0.00 0.00 58 1014.8
20260904150529 85 0 0.0 2.0 0.00 0.00 0.00 59 1014.8
20260904150057 84 0 0.0 2.0 0.00 0.00 0.00 59 1014.7
20260904145529 84 0 0.0 2.0 0.00 0.00 0.00 59 1014.8
20260904145029 84 0 0.0 1.0 0.00 0.00 0.00 59 1014.8
20260904144554 83 0 0.0 0.0 0.00 0.00 0.00 60 1014.9
20260904144032 83 0 0.0 0.0 0.00 0.00 0.00 60 1014.9
20260904143530 83 0 0.0 0.0 0.00 0.00 0.00 61 1015.0
20260904143056 83 0 0.0 0.0 0.00 0.00 0.00 61 1014.9
20260904142529 82 0 0.0 0.0 0.00 0.00 0.00 62 1014.9
20260904142033 82 0 0.0 0.0 0.00 0.00 0.00 62 1015.0
20260904141606 82 0 0.0 0.0 0.00 0.00 0.00 63 1015.0
20260904141029 81 0 0.0 0.0 0.00 0.00 0.00 62 1014.9
20260904140529 81 0 0.0 0.0 0.00 0.00 0.00 63 1014.9
20260904140052 81 0 0.0 0.0 0.00 0.00 0.00 63 1014.8
20260904135530 81 0 0.0 0.0 0.00 0.00 0.00 63 1014.9
20260904135030 81 0 0.0 0.0 0.00 0.00 0.00 64 1014.9
20260904134559 80 0 0.0 0.0 0.00 0.00 0.00 64 1014.8
20260904134029 80 0 0.0 0.0 0.00 0.00 0.00 65 1014.8
20260904133529 80 0 0.0 0.0 0.00 0.00 0.00 65 1014.7
20260904133053 80 0 0.0 0.0 0.00 0.00 0.00 66 1014.6
20260904132531 79 0 0.0 0.0 0.00 0.00 0.00 67 1014.5
20260904132030 79 0 0.0 0.0 0.00 0.00 0.00 67 1014.3
20260904131559 79 0 0.0 0.0 0.00 0.00 0.00 68 1014.4
20260904131032 78 0 0.0 0.0 0.00 0.00 0.00 68 1014.4
20260904130529 78 0 0.0 0.0 0.00 0.00 0.00 68 1014.3
20260904130056 78 0 0.0 0.0 0.00 0.00 0.00 68 1014.3
20260904125530 78 0 0.0 0.0 0.00 0.00 0.00 69 1014.2
20260904125030 78 0 0.0 0.0 0.00 0.00 0.00 69 1014.1
20260904124549 77 0 0.0 0.0 0.00 0.00 0.00 69 1014.0
20260904124030 77 0 0.0 0.0 0.00 0.00 0.00 69 1014.0
20260904123529 77 0 0.0 0.0 0.00 0.00 0.00 68 1014.0
20260904123052 77 0 0.0 0.0 0.00 0.00 0.00 68 1013.9
20260904122530 77 0 0.0 0.0 0.00 0.00 0.00 68 1013.9
20260904122029 77 0 0.0 0.0 0.00 0.00 0.00 68 1013.8
20260904121555 77 0 0.0 0.0 0.00 0.00 0.00 68 1013.8
20260904121029 77 0 0.0 0.0 0.00 0.00 0.00 68 1013.9
20260904120531 77 0 0.0 0.0 0.00 0.00 0.00 68 1013.8
20260904120053 77 0 0.0 0.0 0.00 0.00 0.00 68 1013.7
20260904115530 77 0 0.0 0.0 0.00 0.00 0.00 68 1013.7
20260904115030 77 0 0.0 0.0 0.00 0.00 0.00 68 1013.6
20260904114551 77 0 0.0 0.0 0.00 0.00 0.00 68 1013.7
20260904114031 77 0 0.0 0.0 0.00 0.00 0.00 68 1013.6
20260904113530 76 0 0.0 0.0 0.00 0.00 0.00 68 1013.6
20260904113103 76 0 0.0 0.0 0.00 0.00 0.00 68 1013.6
20260904112529 76 0 0.0 0.0 0.00 0.00 0.00 68 1013.6
20260904112029 76 0 0.0 0.0 0.00 0.00 0.00 68 1013.6
20260904111601 76 0 0.0 0.0 0.00 0.00 0.00 68 1013.5
20260904111030 76 0 0.0 0.0 0.00 0.00 0.00 67 1013.5
20260904110529 76 0 0.0 0.0 0.00 0.00 0.00 67 1013.6
20260904110057 76 0 0.0 0.0 0.00 0.00 0.00 67 1013.6
20260904105530 76 0 0.0 0.0 0.00 0.00 0.00 67 1013.6
20260904105030 76 0 0.0 0.0 0.00 0.00 0.00 67 1013.5
20260904104555 76 0 0.0 0.0 0.00 0.00 0.00 67 1013.5
20260904104033 76 0 0.0 0.0 0.00 0.00 0.00 67 1013.4
20260904103529 76 0 0.0 0.0 0.00 0.00 0.00 67 1013.3
20260904103058 76 0 0.0 0.0 0.00 0.00 0.00 67 1013.3
20260904102530 76 0 0.0 0.0 0.00 0.00 0.00 67 1013.4
20260904102033 76 0 0.0 0.0 0.00 0.00 0.00 67 1013.2
20260904101554 76 0 0.0 0.0 0.00 0.00 0.00 67 1013.2
20260904101031 76 0 0.0 0.0 0.00 0.00 0.00 67 1013.2
20260904100530 76 0 0.0 0.0 0.00 0.00 0.00 66 1013.3
20260904100049 76 0 0.0 0.0 0.00 0.00 0.00 66 1013.2
20260904095530 77 0 0.0 0.0 0.00 0.00 0.00 66 1013.2
20260904095030 77 0 0.0 0.0 0.00 0.00 0.00 66 1013.2
20260904094549 77 0 0.0 0.0 0.00 0.00 0.00 66 1013.2
20260904094029 77 0 0.0 0.0 0.00 0.00 0.00 66 1013.2
20260904093529 77 0 0.0 0.0 0.00 0.00 0.00 66 1013.2
20260904093100 77 0 0.0 0.0 0.00 0.00 0.00 66 1013.3
20260904092530 77 0 0.0 0.0 0.00 0.00 0.00 66 1013.2
20260904092029 77 0 0.0 0.0 0.00 0.00 0.00 66 1013.2
20260904091553 77 0 0.0 0.0 0.00 0.00 0.00 66 1013.2
20260904091030 77 0 0.0 0.0 0.00 0.00 0.00 66 1013.1
20260904090530 77 0 0.0 0.0 0.00 0.00 0.00 66 1013.1
20260904090055 77 0 0.0 0.0 0.00 0.00 0.00 66 1013.1
20260904085533 77 0 0.0 0.0 0.00 0.00 0.00 66 1012.9
20260904085030 76 0 0.0 0.0 0.00 0.00 0.00 66 1013.0
20260904084550 76 0 0.0 0.0 0.00 0.00 0.00 66 1013.0
20260904084030 76 0 0.0 0.0 0.00 0.00 0.00 66 1013.1
20260904083530 76 0 0.0 0.0 0.00 0.00 0.00 66 1013.2
20260904083056 76 0 0.0 0.0 0.00 0.00 0.00 66 1013.2
20260904082531 76 0 0.0 0.0 0.00 0.00 0.00 65 1013.2
20260904082031 76 0 0.0 0.0 0.00 0.00 0.00 65 1013.3
20260904081550 76 0 0.0 0.0 0.00 0.00 0.00 65 1013.3
20260904081030 76 0 0.0 0.0 0.00 0.00 0.00 65 1013.2
20260904080529 76 0 0.0 0.0 0.00 0.00 0.00 65 1013.2
20260904080047 76 0 0.0 0.0 0.00 0.00 0.00 65 1013.2
20260904075530 76 0 0.0 0.0 0.00 0.00 0.00 65 1013.2
20260904075030 76 0 0.0 0.0 0.00 0.00 0.00 65 1013.3
20260904074556 76 0 0.0 0.0 0.00 0.00 0.00 65 1013.3
20260904074032 76 0 0.0 0.0 0.00 0.00 0.00 65 1013.3
20260904073531 76 0 0.0 0.0 0.00 0.00 0.00 65 1013.3
20260904073054 76 0 0.0 0.0 0.00 0.00 0.00 65 1013.4
20260904072530 76 0 0.0 0.0 0.00 0.00 0.00 65 1013.3
20260904072029 76 0 0.0 0.0 0.00 0.00 0.00 65 1013.3
20260904071603 76 0 0.0 0.0 0.00 0.00 0.00 65 1013.4
20260904071030 76 0 0.0 0.0 0.00 0.00 0.00 65 1013.3
20260904070529 76 0 0.0 0.0 0.00 0.00 0.00 65 1013.5
20260904070058 76 0 0.0 0.0 0.00 0.00 0.00 65 1013.5
20260904065530 76 0 0.0 0.0 0.00 0.00 0.00 65 1013.5
20260904065030 76 0 0.0 0.0 0.00 0.00 0.00 65 1013.5
20260904064554 76 0 0.0 0.0 0.00 0.00 0.00 65 1013.6
20260904064030 76 0 0.0 0.0 0.00 0.00 0.00 65 1013.5
20260904063530 76 0 0.0 0.0 0.00 0.00 0.00 65 1013.5
20260904063052 76 0 0.0 0.0 0.00 0.00 0.00 65 1013.4
20260904062530 76 0 0.0 0.0 0.00 0.00 0.00 65 1013.4
20260904062029 76 0 0.0 0.0 0.00 0.00 0.00 65 1013.4
20260904061556 76 0 0.0 0.0 0.00 0.00 0.00 65 1013.3
20260904061030 76 0 0.0 0.0 0.00 0.00 0.00 65 1013.4
20260904060530 76 0 0.0 0.0 0.00 0.00 0.00 65 1013.4
20260904055530 77 0 0.0 0.0 0.00 0.00 0.00 65 1013.5
20260904055030 77 0 0.0 0.0 0.00 0.00 0.00 64 1013.5
20260904054604 77 0 0.0 0.0 0.00 0.00 0.00 64 1013.6
20260904054031 77 0 0.0 0.0 0.00 0.00 0.00 64 1013.4
20260904053531 77 0 0.0 0.0 0.00 0.00 0.00 64 1013.4
20260904053056 77 0 0.0 0.0 0.00 0.00 0.00 64 1013.5
20260904052530 77 0 0.0 0.0 0.00 0.00 0.00 64 1013.4
20260904052030 77 0 0.0 0.0 0.00 0.00 0.00 64 1013.5
20260904051553 78 0 0.0 0.0 0.00 0.00 0.00 64 1013.4
20260904051030 78 0 0.0 0.0 0.00 0.00 0.00 64 1013.4
20260904050530 78 0 0.0 0.0 0.00 0.00 0.00 63 1013.4
20260904050100 78 0 0.0 0.0 0.00 0.00 0.00 63 1013.5
20260904045530 78 0 0.0 0.0 0.00 0.00 0.00 63 1013.4
20260904045030 78 0 0.0 0.0 0.00 0.00 0.00 63 1013.5
20260904044556 78 0 0.0 0.0 0.00 0.00 0.00 62 1013.5
20260904044029 78 0 0.0 0.0 0.00 0.00 0.00 62 1013.6
20260904043529 78 0 0.0 0.0 0.00 0.00 0.00 62 1013.6
20260904043104 79 0 0.0 0.0 0.00 0.00 0.00 62 1013.5
20260904042530 79 0 0.0 0.0 0.00 0.00 0.00 62 1013.4
20260904042029 79 0 0.0 0.0 0.00 0.00 0.00 61 1013.5
20260904041549 79 0 0.0 0.0 0.00 0.00 0.00 61 1013.6
20260904041030 79 0 0.0 0.0 0.00 0.00 0.00 60 1013.5
20260904040531 79 0 0.0 0.0 0.00 0.00 0.00 60 1013.5
20260904040052 79 0 0.0 0.0 0.00 0.00 0.00 59 1013.6
20260904035530 79 0 0.0 0.0 0.00 0.00 0.00 59 1013.7
20260904035031 79 0 0.0 0.0 0.00 0.00 0.00 59 1013.6
20260904034557 79 0 0.0 0.0 0.00 0.00 0.00 59 1013.5
20260904034030 80 0 0.0 0.0 0.00 0.00 0.00 58 1013.7
20260904033530 80 0 0.0 0.0 0.00 0.00 0.00 58 1013.6
20260904033054 80 0 0.0 0.0 0.00 0.00 0.00 58 1013.6
20260904032529 80 0 0.0 0.0 0.00 0.00 0.00 58 1013.6
20260904032029 80 0 0.0 0.0 0.00 0.00 0.00 58 1013.5
20260904031552 80 0 0.0 0.0 0.00 0.00 0.00 58 1013.4
20260904031030 80 0 0.0 0.0 0.00 0.00 0.00 58 1013.5
20260904030529 80 0 0.0 0.0 0.00 0.00 0.00 58 1013.4
20260904030048 80 0 0.0 0.0 0.00 0.00 0.00 58 1013.3
20260904025530 80 0 0.0 0.0 0.00 0.00 0.00 58 1013.4
20260904025029 80 0 0.0 0.0 0.00 0.00 0.00 58 1013.3
20260904024559 80 0 0.0 0.0 0.00 0.00 0.00 58 1013.2
20260904024030 80 0 0.0 0.0 0.00 0.00 0.00 57 1013.1
20260904023532 81 0 0.0 0.0 0.00 0.00 0.00 57 1012.9
20260904023056 81 0 0.0 0.0 0.00 0.00 0.00 57 1012.9
20260904022530 81 0 0.0 0.0 0.00 0.00 0.00 57 1012.9
20260904022030 81 0 0.0 0.0 0.00 0.00 0.00 57 1012.9
20260904021556 81 0 0.0 0.0 0.00 0.00 0.00 57 1012.8
20260904021031 81 0 0.0 0.0 0.00 0.00 0.00 57 1012.7
20260904020532 82 0 0.0 0.0 0.00 0.00 0.00 57 1012.4
20260904020050 82 0 0.0 0.0 0.00 0.00 0.00 57 1012.4
20260904015529 82 0 0.0 0.0 0.00 0.00 0.00 57 1012.4
20260904015031 82 0 0.0 0.0 0.00 0.00 0.00 57 1012.3
20260904014553 82 0 0.0 0.0 0.00 0.00 0.00 57 1012.2
20260904014030 83 0 0.0 0.0 0.00 0.00 0.00 57 1012.1
20260904013529 83 0 0.0 0.0 0.00 0.00 0.00 57 1012.0
20260904013111 83 0 0.0 0.0 0.00 0.00 0.00 56 1012.0
20260904012530 83 0 0.0 0.0 0.00 0.00 0.00 56 1011.9
20260904012030 83 0 0.0 0.0 0.00 0.00 0.00 56 1011.9
20260904011555 84 0 0.0 0.0 0.00 0.00 0.00 56 1011.9
20260904011029 84 0 0.0 0.0 0.00 0.00 0.00 56 1011.9
20260904010529 84 0 0.0 0.0 0.00 0.00 0.00 56 1012.0
20260904010049 84 0 0.0 0.0 0.00 0.00 0.00 56 1012.0
20260904005530 85 0 0.0 0.0 0.00 0.00 0.00 55 1011.9
20260904005030 85 0 0.0 0.0 0.00 0.00 0.00 55 1011.9
20260904004554 85 0 0.0 0.0 0.00 0.00 0.00 53 1012.0
20260904004033 86 0 0.0 0.0 0.00 0.00 0.00 52 1012.0
20260904003529 86 0 0.0 0.0 0.00 0.00 0.00 51 1012.0
20260904003057 86 0 0.0 0.0 0.00 0.00 0.00 50 1012.0
20260904002530 87 0 0.0 1.0 0.00 0.00 0.00 49 1012.0
20260904002030 87 0 0.0 1.0 0.00 0.00 0.00 47 1012.0
20260904001604 87 0 0.0 1.0 0.00 0.00 0.00 46 1011.9
20260904001031 88 0 0.0 1.0 0.00 0.00 0.00 45 1011.8
20260904000530 88 0 0.0 0.0 0.00 0.00 0.00 45 1011.8
20260903235532 89 0 0.0 0.0 0.00 0.00 0.00 43 1011.8
20260903235034 90 0 0.0 1.0 0.00 0.00 0.00 44 1011.7
20260903234556 90 0 0.0 1.0 0.00 0.00 0.00 44 1011.7
20260903234030 90 0 0.0 3.0 0.00 0.00 0.00 45 1011.8
20260903233532 90 0 0.0 3.0 0.00 0.00 0.00 46 1011.6
20260903233053 90 0 0.0 3.0 0.00 0.00 0.00 46 1011.5
20260903232529 90 0 0.0 0.0 0.00 0.00 0.00 46 1011.5
20260903232029 90 0 0.0 0.0 0.00 0.00 0.00 47 1011.6
20260903231548 90 0 0.0 0.0 0.00 0.00 0.00 47 1011.5
20260903231030 90 0 0.0 0.0 0.00 0.00 0.00 46 1011.5
20260903230534 90 0 0.0 0.0 0.00 0.00 0.00 46 1011.5
20260903230058 90 0 0.0 0.0 0.00 0.00 0.00 46 1011.5
20260903225532 91 0 0.0 0.0 0.00 0.00 0.00 46 1011.4
20260903225030 91 0 0.0 0.0 0.00 0.00 0.00 46 1011.4
20260903224551 91 0 0.0 0.0 0.00 0.00 0.00 46 1011.3
20260903224030 92 0 0.0 0.0 0.00 0.00 0.00 45 1011.3
20260903223530 92 0 0.0 0.0 0.00 0.00 0.00 45 1011.3
20260903223052 93 0 0.0 0.0 0.00 0.00 0.00 45 1011.4
20260903222530 92 0 0.0 0.0 0.00 0.00 0.00 46 1011.4
20260903222030 92 0 0.0 0.0 0.00 0.00 0.00 46 1011.4
20260903221559 92 0 0.0 0.0 0.00 0.00 0.00 46 1011.4
20260903221029 93 0 0.0 0.0 0.00 0.00 0.00 46 1011.4
20260903220530 93 0 0.0 0.0 0.00 0.00 0.00 46 1011.4
20260903220104 93 0 0.0 0.0 0.00 0.00 0.00 45 1011.4
20260903215530 93 0 0.0 0.0 0.00 0.00 0.00 45 1011.4
20260903215030 93 0 0.0 0.0 0.00 0.00 0.00 46 1011.3
20260903214549 93 0 0.0 0.0 0.00 0.00 0.00 45 1011.4
20260903214031 93 0 0.0 0.0 0.00 0.00 0.00 46 1011.5